ASA291 KSAN-KSFO

Flight info

Callsign ASA291
Flight time 1h 1m
Altitude 36000
Route PADRZ2 IKAYE RIZIN SPLNT STOKD SERFR SERFR4
Aircraft B738/M-SDE2E3FGHIRWXY/LB1

Departure

Time 2026-04-26 00:11
Airport San Diego International Airport (KSAN)

Arrival

Time 2026-04-26 01:13
Airport San Francisco International Airport (KSFO)
Time Latitude Longitude Altitude Speed Heading
2026-04-25 23:38 32.73236 -117.20278 20 ft 0 kts 198°
2026-04-25 23:55 32.73239 -117.20277 20 ft 3 kts 198°
2026-04-25 23:55 32.73263 -117.20265 20 ft 4 kts 210°
2026-04-25 23:56 32.73282 -117.20257 22 ft 4 kts 187°
2026-04-25 23:56 32.73308 -117.20258 21 ft 3 kts 172°
2026-04-25 23:56 32.73310 -117.20258 21 ft 1 kts 172°
2026-04-25 23:58 32.73309 -117.20264 22 ft 1 kts 252°
2026-04-25 23:59 32.73314 -117.20266 22 ft 1 kts 332°
2026-04-25 23:59 32.73331 -117.20264 19 ft 0 kts 345°
2026-04-26 00:00 32.73332 -117.20264 20 ft 1 kts 346°
2026-04-26 00:00 32.73357 -117.20271 20 ft 8 kts 346°
2026-04-26 00:01 32.73410 -117.20270 20 ft 15 kts 14°
2026-04-26 00:01 32.73526 -117.20232 21 ft 18 kts 16°
2026-04-26 00:01 32.73553 -117.20191 22 ft 8 kts 107°
2026-04-26 00:01 32.73520 -117.20060 21 ft 23 kts 106°
2026-04-26 00:02 32.73473 -117.19869 24 ft 24 kts 106°
2026-04-26 00:02 32.73428 -117.19686 24 ft 22 kts 106°
2026-04-26 00:02 32.73386 -117.19510 26 ft 22 kts 106°
2026-04-26 00:02 32.73344 -117.19340 20 ft 21 kts 105°
2026-04-26 00:03 32.73304 -117.19174 20 ft 21 kts 107°
2026-04-26 00:03 32.73265 -117.19013 21 ft 20 kts 106°
2026-04-26 00:03 32.73227 -117.18858 24 ft 19 kts 106°
2026-04-26 00:03 32.73192 -117.18707 23 ft 19 kts 105°
2026-04-26 00:04 32.73157 -117.18560 23 ft 18 kts 107°
2026-04-26 00:04 32.73122 -117.18422 21 ft 17 kts 106°
2026-04-26 00:04 32.73089 -117.18286 20 ft 17 kts 105°
2026-04-26 00:04 32.73057 -117.18155 19 ft 16 kts 106°
2026-04-26 00:05 32.73026 -117.18029 18 ft 16 kts 107°
2026-04-26 00:05 32.72996 -117.17908 17 ft 15 kts 106°
2026-04-26 00:05 32.72968 -117.17792 14 ft 14 kts 105°
2026-04-26 00:05 32.72947 -117.17696 16 ft 7 kts 93°
2026-04-26 00:06 32.72953 -117.17669 16 ft 0 kts 71°
2026-04-26 00:09 32.72958 -117.17650 19 ft 6 kts 71°
2026-04-26 00:09 32.72982 -117.17585 19 ft 7 kts 47°
2026-04-26 00:10 32.73019 -117.17589 20 ft 6 kts 314°
2026-04-26 00:10 32.73031 -117.17617 18 ft 0 kts 285°
2026-04-26 00:10 32.73031 -117.17620 18 ft 0 kts 284°
2026-04-26 00:10 32.73031 -117.17621 18 ft 1 kts 284°
2026-04-26 00:11 32.73042 -117.17670 18 ft 23 kts 285°
2026-04-26 00:11 32.73157 -117.18139 19 ft 93 kts 285°
2026-04-26 00:11 32.73396 -117.19104 41 ft 146 kts 287°
2026-04-26 00:11 32.73685 -117.20276 679 ft 145 kts 283°
2026-04-26 00:12 32.73994 -117.21425 1323 ft 153 kts 295°
2026-04-26 00:12 32.74603 -117.22492 1860 ft 163 kts 301°
2026-04-26 00:12 32.75294 -117.23699 2140 ft 191 kts 301°
2026-04-26 00:12 32.76084 -117.25087 2350 ft 214 kts 301°
2026-04-26 00:13 32.76954 -117.26612 2631 ft 230 kts 301°
2026-04-26 00:13 32.77889 -117.28250 2908 ft 249 kts 301°
2026-04-26 00:13 32.78879 -117.29985 3537 ft 256 kts 302°
2026-04-26 00:13 32.79886 -117.31741 4406 ft 258 kts 303°
2026-04-26 00:14 32.80956 -117.33458 4852 ft 260 kts 306°
2026-04-26 00:14 32.82050 -117.35139 4964 ft 258 kts 306°
2026-04-26 00:14 32.83155 -117.36829 4990 ft 253 kts 306°
2026-04-26 00:14 32.84224 -117.38472 5015 ft 257 kts 306°
2026-04-26 00:15 32.85332 -117.40179 5137 ft 265 kts 306°
2026-04-26 00:15 32.86452 -117.41911 5985 ft 264 kts 306°
2026-04-26 00:15 32.87576 -117.43651 6741 ft 267 kts 305°
2026-04-26 00:15 32.88712 -117.45413 7476 ft 270 kts 304°
2026-04-26 00:16 32.89859 -117.47194 8290 ft 272 kts 303°
2026-04-26 00:16 32.91015 -117.48991 9145 ft 274 kts 302°
2026-04-26 00:16 32.92179 -117.50803 9959 ft 277 kts 302°
2026-04-26 00:16 32.93370 -117.52661 10459 ft 292 kts 301°
2026-04-26 00:17 32.94652 -117.54673 10635 ft 317 kts 301°
2026-04-26 00:17 32.96036 -117.56842 10827 ft 340 kts 302°
2026-04-26 00:17 32.97477 -117.59088 11305 ft 350 kts 302°
2026-04-26 00:17 32.98968 -117.61406 12025 ft 354 kts 301°
2026-04-26 00:18 33.00471 -117.63743 12857 ft 356 kts 301°
2026-04-26 00:18 33.01981 -117.66096 13674 ft 359 kts 300°
2026-04-26 00:18 33.03505 -117.68477 14406 ft 363 kts 300°
2026-04-26 00:18 33.05043 -117.70885 15139 ft 367 kts 300°
2026-04-26 00:19 33.06631 -117.73290 15858 ft 374 kts 304°
2026-04-26 00:19 33.08579 -117.75438 16564 ft 386 kts 312°
2026-04-26 00:19 33.10672 -117.77473 17249 ft 391 kts 313°
2026-04-26 00:19 33.12791 -117.79532 17927 ft 395 kts 312°
2026-04-26 00:20 33.14915 -117.81641 18553 ft 398 kts 311°
2026-04-26 00:20 33.17031 -117.83783 19146 ft 401 kts 310°
2026-04-26 00:20 33.19131 -117.85925 19768 ft 403 kts 310°
2026-04-26 00:20 33.21198 -117.88178 20402 ft 402 kts 307°
2026-04-26 00:21 33.23192 -117.90526 20994 ft 403 kts 306°
2026-04-26 00:21 33.25172 -117.92927 21559 ft 407 kts 305°
2026-04-26 00:21 33.27158 -117.95351 22107 ft 410 kts 305°
2026-04-26 00:21 33.29167 -117.97795 22622 ft 414 kts 305°
2026-04-26 00:22 33.31202 -118.00257 23166 ft 418 kts 305°
2026-04-26 00:22 33.33252 -118.02725 23653 ft 421 kts 305°
2026-04-26 00:22 33.35328 -118.05216 24086 ft 423 kts 305°
2026-04-26 00:22 33.37414 -118.07715 24542 ft 426 kts 305°
2026-04-26 00:23 33.39514 -118.10231 24949 ft 430 kts 305°
2026-04-26 00:23 33.41635 -118.12774 25325 ft 434 kts 305°
2026-04-26 00:23 33.43771 -118.15334 25746 ft 436 kts 305°
2026-04-26 00:23 33.45887 -118.17871 26164 ft 437 kts 305°
2026-04-26 00:24 33.48041 -118.20456 26560 ft 440 kts 305°
2026-04-26 00:24 33.50210 -118.23063 26936 ft 442 kts 305°
2026-04-26 00:24 33.52388 -118.25683 27299 ft 445 kts 305°
2026-04-26 00:24 33.54577 -118.28318 27667 ft 447 kts 305°
2026-04-26 00:25 33.56781 -118.30974 28051 ft 450 kts 305°
2026-04-26 00:25 33.58997 -118.33648 28339 ft 454 kts 305°
2026-04-26 00:25 33.61233 -118.36346 28673 ft 457 kts 306°
2026-04-26 00:25 33.63477 -118.39055 29087 ft 458 kts 306°
2026-04-26 00:26 33.65724 -118.41766 29596 ft 456 kts 306°
2026-04-26 00:26 33.67926 -118.44422 30123 ft 454 kts 305°
2026-04-26 00:26 33.70145 -118.47103 30559 ft 452 kts 305°
2026-04-26 00:26 33.72360 -118.49785 30935 ft 452 kts 305°
2026-04-26 00:27 33.74571 -118.52467 31342 ft 451 kts 305°
2026-04-26 00:27 33.76781 -118.55150 31649 ft 453 kts 305°
2026-04-26 00:27 33.79000 -118.57846 31979 ft 453 kts 305°
2026-04-26 00:27 33.81212 -118.60534 32384 ft 451 kts 305°
2026-04-26 00:28 33.83416 -118.63212 32810 ft 449 kts 304°
2026-04-26 00:28 33.85610 -118.65881 33189 ft 449 kts 304°
2026-04-26 00:28 33.87772 -118.68514 33582 ft 448 kts 304°
2026-04-26 00:28 33.89953 -118.71172 34004 ft 445 kts 304°
2026-04-26 00:29 33.92130 -118.73827 34346 ft 444 kts 304°
2026-04-26 00:29 33.94302 -118.76482 34554 ft 446 kts 305°
2026-04-26 00:29 33.96482 -118.79149 34816 ft 447 kts 305°
2026-04-26 00:29 33.98665 -118.81817 35130 ft 446 kts 305°
2026-04-26 00:30 34.00831 -118.84466 35481 ft 444 kts 305°
2026-04-26 00:30 34.02997 -118.87117 35792 ft 442 kts 305°
2026-04-26 00:30 34.05154 -118.89762 35955 ft 445 kts 305°
2026-04-26 00:31 34.09516 -118.95120 35976 ft 448 kts 305°
2026-04-26 00:31 34.13861 -119.00462 35965 ft 442 kts 304°
2026-04-26 00:31 34.15716 -119.03297 35976 ft 430 kts 295°
2026-04-26 00:32 34.17296 -119.06338 35949 ft 427 kts 293°
2026-04-26 00:32 34.21853 -119.15573 35954 ft 427 kts 293°
2026-04-26 00:33 34.24955 -119.21700 35972 ft 428 kts 294°
2026-04-26 00:33 34.28098 -119.27845 35972 ft 437 kts 294°
2026-04-26 00:34 34.31318 -119.34128 35945 ft 440 kts 294°
2026-04-26 00:34 34.34535 -119.40412 35944 ft 439 kts 294°
2026-04-26 00:35 34.37740 -119.46695 35956 ft 439 kts 294°
2026-04-26 00:35 34.41000 -119.52960 35946 ft 443 kts 299°
2026-04-26 00:36 34.45229 -119.58538 35947 ft 453 kts 308°
2026-04-26 00:36 34.49703 -119.63926 35922 ft 453 kts 308°
2026-04-26 00:37 34.54113 -119.69287 35929 ft 452 kts 307°
2026-04-26 00:37 34.58528 -119.74713 35938 ft 452 kts 307°
2026-04-26 00:38 34.62937 -119.80156 35935 ft 451 kts 307°
2026-04-26 00:38 34.67336 -119.85599 35955 ft 452 kts 307°
2026-04-26 00:39 34.71742 -119.91056 35960 ft 453 kts 307°
2026-04-26 00:39 34.76125 -119.96491 35966 ft 453 kts 308°
2026-04-26 00:40 34.80532 -120.01965 35963 ft 453 kts 308°
2026-04-26 00:40 34.84945 -120.07456 35975 ft 454 kts 308°
2026-04-26 00:41 34.89358 -120.12957 35968 ft 454 kts 308°
2026-04-26 00:41 34.93772 -120.18467 35981 ft 454 kts 308°
2026-04-26 00:42 34.98184 -120.23984 35979 ft 454 kts 308°
2026-04-26 00:42 35.02597 -120.29512 35973 ft 455 kts 308°
2026-04-26 00:43 35.06978 -120.35008 35989 ft 455 kts 308°
2026-04-26 00:43 35.11492 -120.40456 35989 ft 458 kts 311°
2026-04-26 00:44 35.16211 -120.45694 35976 ft 459 kts 312°
2026-04-26 00:44 35.20944 -120.50927 35970 ft 458 kts 312°
2026-04-26 00:45 35.25632 -120.56175 35977 ft 457 kts 312°
2026-04-26 00:45 35.30311 -120.61448 35971 ft 458 kts 312°
2026-04-26 00:46 35.34962 -120.66700 35963 ft 458 kts 312°
2026-04-26 00:46 35.39648 -120.71997 35969 ft 458 kts 312°
2026-04-26 00:47 35.44339 -120.77306 35963 ft 459 kts 312°
2026-04-26 00:47 35.49047 -120.82585 35975 ft 460 kts 315°
2026-04-26 00:48 35.54127 -120.87411 35981 ft 463 kts 318°
2026-04-26 00:48 35.59289 -120.92071 35984 ft 464 kts 319°
2026-04-26 00:49 35.64463 -120.96810 35985 ft 464 kts 318°
2026-04-26 00:49 35.69612 -121.01594 35968 ft 464 kts 318°
2026-04-26 00:50 35.74751 -121.06395 35981 ft 464 kts 318°
2026-04-26 00:50 35.79889 -121.11203 35962 ft 464 kts 318°
2026-04-26 00:51 35.84992 -121.15983 35970 ft 464 kts 318°
2026-04-26 00:51 35.90135 -121.20807 35961 ft 464 kts 318°
2026-04-26 00:52 35.95273 -121.25636 35976 ft 465 kts 319°
2026-04-26 00:52 36.00418 -121.30479 35970 ft 465 kts 319°
2026-04-26 00:53 36.05525 -121.35294 35961 ft 465 kts 319°
2026-04-26 00:53 36.10820 -121.39891 35931 ft 465 kts 324°
2026-04-26 00:54 36.13566 -121.41986 35491 ft 461 kts 325°
2026-04-26 00:54 36.16314 -121.44039 34849 ft 462 kts 325°
2026-04-26 00:54 36.19067 -121.46111 34090 ft 465 kts 325°
2026-04-26 00:54 36.21830 -121.48220 33222 ft 468 kts 326°
2026-04-26 00:55 36.24603 -121.50364 32353 ft 471 kts 326°
2026-04-26 00:55 36.27379 -121.52527 31527 ft 472 kts 326°
2026-04-26 00:55 36.30120 -121.54672 30778 ft 472 kts 327°
2026-04-26 00:55 36.32891 -121.56845 30031 ft 471 kts 327°
2026-04-26 00:56 36.35661 -121.59019 29014 ft 472 kts 328°
2026-04-26 00:56 36.38441 -121.61199 27936 ft 474 kts 328°
2026-04-26 00:56 36.41237 -121.63394 26987 ft 474 kts 328°
2026-04-26 00:56 36.44006 -121.65569 26296 ft 468 kts 328°
2026-04-26 00:57 36.46739 -121.67717 25666 ft 462 kts 328°
2026-04-26 00:57 36.49431 -121.69835 25034 ft 456 kts 327°
2026-04-26 00:57 36.52094 -121.71934 24363 ft 451 kts 327°
2026-04-26 00:57 36.54697 -121.73990 23707 ft 448 kts 327°
2026-04-26 00:58 36.57317 -121.76062 22946 ft 443 kts 326°
2026-04-26 00:58 36.59899 -121.78106 22283 ft 437 kts 326°
2026-04-26 00:58 36.62433 -121.80113 21816 ft 427 kts 326°
2026-04-26 00:58 36.64911 -121.82079 21251 ft 419 kts 326°
2026-04-26 00:59 36.67364 -121.84026 20534 ft 416 kts 326°
2026-04-26 00:59 36.69801 -121.85961 19820 ft 414 kts 326°
2026-04-26 00:59 36.72220 -121.87883 19206 ft 411 kts 326°
2026-04-26 00:59 36.74698 -121.89624 18566 ft 410 kts 337°
2026-04-26 01:00 36.77458 -121.90486 17909 ft 408 kts 348°
2026-04-26 01:00 36.80194 -121.91168 17268 ft 403 kts 348°
2026-04-26 01:00 36.82923 -121.91884 16648 ft 398 kts 347°
2026-04-26 01:00 36.85616 -121.92619 16034 ft 394 kts 347°
2026-04-26 01:01 36.88271 -121.93358 15442 ft 389 kts 347°
2026-04-26 01:01 36.90902 -121.94095 14850 ft 385 kts 348°
2026-04-26 01:01 36.93500 -121.94823 14276 ft 381 kts 348°
2026-04-26 01:01 36.96066 -121.95575 13717 ft 377 kts 346°
2026-04-26 01:02 36.98543 -121.96482 13324 ft 366 kts 343°
2026-04-26 01:02 37.00953 -121.97445 12711 ft 362 kts 342°
2026-04-26 01:02 37.03351 -121.98418 12004 ft 362 kts 341°
2026-04-26 01:02 37.05715 -121.99371 11346 ft 361 kts 341°
2026-04-26 01:03 37.08106 -122.00324 10672 ft 360 kts 341°
2026-04-26 01:03 37.10493 -122.01267 10042 ft 360 kts 341°
2026-04-26 01:03 37.12880 -122.02205 9337 ft 360 kts 341°
2026-04-26 01:03 37.15268 -122.03141 8689 ft 358 kts 341°
2026-04-26 01:04 37.17626 -122.04065 8118 ft 354 kts 341°
2026-04-26 01:04 37.19967 -122.04982 7557 ft 350 kts 341°
2026-04-26 01:04 37.22282 -122.05889 7008 ft 347 kts 341°
2026-04-26 01:04 37.24545 -122.06775 6816 ft 333 kts 341°
2026-04-26 01:05 37.26709 -122.07623 6653 ft 319 kts 341°
2026-04-26 01:05 37.28759 -122.08427 6529 ft 307 kts 340°
2026-04-26 01:05 37.30761 -122.09216 6389 ft 296 kts 340°
2026-04-26 01:05 37.32692 -122.09977 6266 ft 285 kts 340°
2026-04-26 01:06 37.34554 -122.10712 6150 ft 275 kts 340°
2026-04-26 01:06 37.36355 -122.11421 5975 ft 268 kts 340°
2026-04-26 01:06 37.38134 -122.12115 5537 ft 269 kts 341°
2026-04-26 01:06 37.39959 -122.12744 4898 ft 273 kts 342°
2026-04-26 01:07 37.41802 -122.13350 4258 ft 275 kts 342°
2026-04-26 01:07 37.43663 -122.13961 3623 ft 277 kts 342°
2026-04-26 01:07 37.45486 -122.14563 3270 ft 269 kts 342°
2026-04-26 01:07 37.47240 -122.15146 3129 ft 254 kts 342°
2026-04-26 01:08 37.48898 -122.15700 3009 ft 239 kts 341°
2026-04-26 01:08 37.50445 -122.16219 2991 ft 222 kts 341°
2026-04-26 01:08 37.51870 -122.16696 3015 ft 203 kts 341°
2026-04-26 01:08 37.53153 -122.17214 2992 ft 182 kts 325°
2026-04-26 01:09 37.53913 -122.18323 3031 ft 167 kts 297°
2026-04-26 01:09 37.54559 -122.19585 2859 ft 172 kts 297°
2026-04-26 01:09 37.55139 -122.20877 2640 ft 167 kts 294°
2026-04-26 01:09 37.55672 -122.22147 2432 ft 162 kts 293°
2026-04-26 01:10 37.56185 -122.23375 2211 ft 159 kts 294°
2026-04-26 01:10 37.56690 -122.24583 2008 ft 154 kts 293°
2026-04-26 01:10 37.57163 -122.25713 1833 ft 146 kts 293°
2026-04-26 01:10 37.57636 -122.26847 1634 ft 148 kts 293°
2026-04-26 01:11 37.58118 -122.28002 1444 ft 149 kts 295°
2026-04-26 01:11 37.58585 -122.29112 1229 ft 139 kts 295°
2026-04-26 01:11 37.59029 -122.30175 1058 ft 138 kts 295°
2026-04-26 01:11 37.59477 -122.31243 853 ft 138 kts 295°
2026-04-26 01:12 37.59919 -122.32299 688 ft 139 kts 295°
2026-04-26 01:12 37.60377 -122.33375 550 ft 139 kts 294°
2026-04-26 01:12 37.60834 -122.34460 318 ft 142 kts 295°
2026-04-26 01:12 37.61278 -122.35535 125 ft 136 kts 295°
2026-04-26 01:13 37.61715 -122.36580 21 ft 131 kts 296°
2026-04-26 01:13 37.62041 -122.37356 23 ft 64 kts 297°
2026-04-26 01:13 37.62145 -122.37610 21 ft 17 kts 289°
2026-04-26 01:13 37.62125 -122.37708 23 ft 12 kts 233°
2026-04-26 01:14 37.62083 -122.37770 21 ft 9 kts 229°
2026-04-26 01:14 37.62043 -122.37827 21 ft 8 kts 227°
2026-04-26 01:14 37.62002 -122.37882 21 ft 10 kts 229°
2026-04-26 01:14 37.61939 -122.37970 21 ft 18 kts 218°
2026-04-26 01:15 37.61802 -122.37964 23 ft 22 kts 163°
2026-04-26 01:15 37.61654 -122.37972 22 ft 21 kts 204°
2026-04-26 01:15 37.61525 -122.38060 21 ft 21 kts 207°
2026-04-26 01:15 37.61399 -122.38142 23 ft 20 kts 206°
2026-04-26 01:16 37.61293 -122.38224 21 ft 9 kts 239°
2026-04-26 01:16 37.61274 -122.38292 21 ft 6 kts 286°
2026-04-26 01:16 37.61283 -122.38310 21 ft 1 kts 301°
2026-04-26 01:16 37.61287 -122.38318 23 ft 2 kts 300°
2026-04-26 01:17 37.61300 -122.38348 21 ft 5 kts 298°
2026-04-26 01:17 37.61308 -122.38366 21 ft 0 kts 298°